Humidity-temperature Sensor

Selected Measurement Type: Relative Humidity

 
Relative Humidity [%]     6 entries per hour
Showing data from 5/26/2020 (00:00:00 Z) to 5/23/2020 (00:01:00 Z)
Previous Next [ Day | 3-Days | 7-Days ]
First Last
Prev [ Day | 3-Days | 7-Days ] Next
First Last

Start Time:     :
End Time:     :     
Time (in GMT) :00 :50 :40 :30 :20 :10
Previous Next [ Day | 3-Days | 7-Days ]
First Last
Prev [ Day | 3-Days | 7-Days ] Next
First Last


123 => good data
MM => data is determined as missing
-- => data not received/configured
Back to Top Back to Top
5/26/2020 00:00 to 23:10 90.38 90.96 91.48 92.11 92.17 92.40
5/25/2020 23:00 to 22:10 92.72 93.11 93.09 93.40 93.92 93.61
5/25/2020 22:00 to 21:10 93.74 93.70 93.84 94.55 94.53 94.72
5/25/2020 21:00 to 20:10 94.34 94.32 94.84 95.01 94.65 95.18
5/25/2020 20:00 to 19:10 94.36 95.13 95.01 94.72 95.22 95.34
5/25/2020 19:00 to 18:10 95.18 95.18 95.38 95.41 95.74 95.84
5/25/2020 18:00 to 17:10 96.09 96.01 95.84 95.70 95.68 95.36
5/25/2020 17:00 to 16:10 95.51 95.91 96.14 96.20 96.36 96.18
5/25/2020 16:00 to 15:10 96.18 96.16 96.57 97.07 97.14 97.20
5/25/2020 15:00 to 14:10 97.43 97.57 97.70 97.68 97.62 97.59
5/25/2020 14:00 to 13:10 97.68 97.87 97.99 98.18 98.41 98.53
5/25/2020 13:00 to 12:10 98.43 97.97 97.89 97.95 97.62 97.20
5/25/2020 12:00 to 11:10 97.45 96.86 96.76 97.16 96.55 96.26
5/25/2020 11:00 to 10:10 96.47 96.41 96.32 96.49 96.09 95.80
5/25/2020 10:00 to 9:10 95.61 95.88 96.49 96.68 96.55 96.66
5/25/2020 09:00 to 8:10 96.91 97.05 97.32 97.51 97.14 97.07
5/25/2020 08:00 to 7:10 97.41 97.34 97.07 97.14 97.43 97.28
5/25/2020 07:00 to 6:10 97.09 97.43 97.74 97.41 96.99 96.64
5/25/2020 06:00 to 5:10 96.45 96.43 96.57 96.01 95.74 95.80
5/25/2020 05:00 to 4:10 95.61 95.63 95.34 95.41 95.76 95.51
5/25/2020 04:00 to 3:10 94.82 94.76 94.61 94.55 94.74 95.20
5/25/2020 03:00 to 2:10 94.82 94.24 94.45 93.80 94.13 93.65
5/25/2020 02:00 to 1:10 94.15 93.59 94.01 93.76 93.59 93.76
5/25/2020 01:00 to 0:10 93.30 93.32 93.09 93.30 92.40 92.74
5/25/2020 00:00 to 23:10 92.15 92.88 91.71 92.26 92.38 91.71
5/24/2020 23:00 to 22:10 92.36 92.59 92.36 93.13 93.15 92.99
5/24/2020 22:00 to 21:10 93.22 93.38 93.28 93.57 93.72 93.09
5/24/2020 21:00 to 20:10 92.86 92.63 93.11 92.99 93.55 93.67
5/24/2020 20:00 to 19:10 93.36 93.67 93.61 93.30 93.86 94.24
5/24/2020 19:00 to 18:10 93.70 93.82 93.55 94.63 94.51 94.49
5/24/2020 18:00 to 17:10 94.15 94.15 94.49 94.82 94.59 94.38
5/24/2020 17:00 to 16:10 94.05 94.03 94.24 93.38 93.86 93.51
5/24/2020 16:00 to 15:10 92.86 92.36 92.94 92.69 93.63 94.86
5/24/2020 15:00 to 14:10 93.63 94.17 94.97 95.13 95.24 95.01
5/24/2020 14:00 to 13:10 94.86 95.34 95.47 95.76 96.39 95.30
5/24/2020 13:00 to 12:10 94.82 95.30 95.05 96.20 95.84 95.30
5/24/2020 12:00 to 11:10 95.78 95.43 94.90 95.01 95.32 95.07
5/24/2020 11:00 to 10:10 94.49 93.78 95.53 94.68 95.22 95.30
5/24/2020 10:00 to 9:10 95.55 95.41 95.09 94.59 94.80 94.38
5/24/2020 09:00 to 8:10 95.01 95.11 94.34 93.42 94.70 93.84
5/24/2020 08:00 to 7:10 94.59 95.41 94.74 94.72 94.40 93.92
5/24/2020 07:00 to 6:10 94.53 94.09 94.40 94.55 94.32 94.09
5/24/2020 06:00 to 5:10 93.55 93.70 93.63 92.47 92.74 93.90
5/24/2020 05:00 to 4:10 93.53 93.82 94.43 94.24 93.97 93.70
5/24/2020 04:00 to 3:10 94.15 93.95 92.90 93.09 93.09 92.69
5/24/2020 03:00 to 2:10 93.38 93.38 93.45 92.72 93.09 93.47
5/24/2020 02:00 to 1:10 94.55 94.47 94.36 94.13 94.26 93.70
5/24/2020 01:00 to 0:10 93.76 93.99 93.95 93.34 93.38 93.86
5/24/2020 00:00 to 23:10 93.55 93.57 93.78 93.59 93.32 93.19
5/23/2020 23:00 to 22:10 93.76 93.70 94.11 94.76 95.01 94.45
5/23/2020 22:00 to 21:10 94.32 94.24 94.47 94.59 94.68 93.70
5/23/2020 21:00 to 20:10 93.90 94.80 94.78 95.16 94.57 94.68
5/23/2020 20:00 to 19:10 94.43 94.88 94.95 94.61 94.59 94.26
5/23/2020 19:00 to 18:10 94.30 94.34 94.13 93.76 93.95 94.13
5/23/2020 18:00 to 17:10 94.20 94.45 93.78 94.01 93.47 93.51
5/23/2020 17:00 to 16:10 93.78 93.72 93.17 93.88 94.17 93.84
5/23/2020 16:00 to 15:10 93.61 93.63 93.28 93.72 93.17 93.22
5/23/2020 15:00 to 14:10 92.86 93.38 93.51 93.82 94.38 94.97
5/23/2020 14:00 to 13:10 95.07 94.40 95.34 96.36 96.95 97.26
5/23/2020 13:00 to 12:10 96.91 96.78 96.39 96.82 97.01 97.03
5/23/2020 12:00 to 11:10 97.39 97.57 97.30 97.41 96.74 97.18
5/23/2020 11:00 to 10:10 96.55 95.49 96.01 95.82 96.01 95.66
5/23/2020 10:00 to 9:10 95.72 96.16 96.18 95.82 95.74 95.11
5/23/2020 09:00 to 8:10 95.28 96.09 96.24 96.05 95.34 95.76
5/23/2020 08:00 to 7:10 96.07 95.97 95.51 95.05 94.78 94.43
5/23/2020 07:00 to 6:10 93.74 94.03 94.72 94.55 93.67 94.28
5/23/2020 06:00 to 5:10 93.88 93.53 92.49 92.17 92.11 91.57
5/23/2020 05:00 to 4:10 91.90 91.40 90.98 91.55 91.53 91.65
5/23/2020 04:00 to 3:10 91.67 91.17 91.01 91.40 91.65 91.61
5/23/2020 03:00 to 2:10 91.78 92.55 92.82 93.51 94.55 94.22
5/23/2020 02:00 to 1:10 94.30 94.53 94.11 94.30 94.26 93.92
5/23/2020 01:00 to 0:10 93.55 92.61 92.19 92.51 92.09 92.65